GW2042 Weather Reports


Display with metric or nautical units.
time (UTC)temp
F
wind
direction
speed
MPH
gust
MPH
rain 1hr
in
rain 24hr
in
rain mn
in
humidity
%
barometer
mb
20260503034529 53 0 0.0 0.0 0.00 0.00 0.00 76 1021.4
20260503034014 53 0 0.0 0.0 0.00 0.00 0.00 76 1021.4
20260503033516 54 0 0.0 0.0 0.00 0.00 0.00 75 1021.4
20260503033032 54 0 0.0 0.0 0.00 0.00 0.00 73 1021.3
20260503032515 54 0 0.0 0.0 0.00 0.00 0.00 75 1021.3
20260503032015 53 0 0.0 0.0 0.00 0.00 0.00 78 1021.4
20260503031532 53 0 0.0 0.0 0.00 0.00 0.00 77 1021.3
20260503031014 53 0 0.0 0.0 0.00 0.00 0.00 76 1021.3
20260503030517 54 0 0.0 0.0 0.00 0.00 0.00 74 1021.3
20260503030030 54 0 0.0 0.0 0.00 0.00 0.00 75 1021.2
20260503025514 54 0 0.0 0.0 0.00 0.00 0.00 74 1021.2
20260503025014 54 0 0.0 0.0 0.00 0.00 0.00 73 1021.3
20260503024530 54 0 0.0 0.0 0.00 0.00 0.00 74 1021.1
20260503024015 55 0 0.0 0.0 0.00 0.00 0.00 72 1021.2
20260503023514 55 0 0.0 0.0 0.00 0.00 0.00 71 1021.0
20260503023027 56 0 0.0 0.0 0.00 0.00 0.00 69 1021.0
20260503022515 56 0 0.0 0.0 0.00 0.00 0.00 69 1020.9
20260503022014 56 0 0.0 0.0 0.00 0.00 0.00 71 1020.9
20260503021532 56 0 0.0 0.0 0.00 0.00 0.00 67 1020.8
20260503021014 57 0 0.0 0.0 0.00 0.00 0.00 67 1020.7
20260503020514 57 0 0.0 0.0 0.00 0.00 0.00 67 1020.7
20260503020032 57 0 0.0 0.0 0.00 0.00 0.00 67 1020.6
20260503015515 58 0 0.0 0.0 0.00 0.00 0.00 64 1020.6
20260503015014 58 0 0.0 0.0 0.00 0.00 0.00 64 1020.6
20260503014535 58 0 0.0 0.0 0.00 0.00 0.00 70 1020.5
20260503014014 59 0 0.0 0.0 0.00 0.00 0.00 71 1020.5
20260503013516 59 0 0.0 0.0 0.00 0.00 0.00 69 1020.5
20260503013030 60 0 0.0 0.0 0.00 0.00 0.00 69 1020.4
20260503012515 61 0 0.0 0.0 0.00 0.00 0.00 63 1020.3
20260503012019 62 0 0.0 0.0 0.00 0.00 0.00 63 1020.3
20260503011530 63 0 0.0 0.0 0.00 0.00 0.00 66 1020.3
20260503011014 63 0 0.0 0.0 0.00 0.00 0.00 62 1020.2
20260503010514 64 0 0.0 1.0 0.00 0.00 0.00 64 1020.1
20260503010035 65 0 0.0 1.0 0.00 0.00 0.00 58 1020.1
20260503005516 66 0 0.0 1.0 0.00 0.00 0.00 54 1020.1
20260503005019 66 0 0.0 1.0 0.00 0.00 0.00 48 1020.0
20260503004532 67 0 0.0 1.0 0.00 0.00 0.00 49 1020.0
20260503004015 68 0 0.0 1.0 0.00 0.00 0.00 46 1020.0
20260503003515 69 0 0.0 2.0 0.00 0.00 0.00 49 1020.1
20260503003046 70 0 0.0 3.0 0.00 0.00 0.00 47 1020.0
20260503002516 71 0 1.0 4.0 0.00 0.00 0.00 39 1020.0
20260503002018 71 233 1.0 4.0 0.00 0.00 0.00 40 1019.9
20260503001547 72 234 1.0 3.0 0.00 0.00 0.00 40 1020.1
20260503001014 72 264 0.0 3.0 0.00 0.00 0.00 38 1020.1
20260503000515 72 264 0.0 3.0 0.00 0.00 0.00 38 1020.1
20260503000031 72 296 0.0 3.0 0.00 0.00 0.00 36 1020.0
20260502235515 73 328 0.0 3.0 0.00 0.00 0.00 38 1020.1
20260502235015 73 294 0.0 3.0 0.00 0.00 0.00 35 1020.1
20260502234535 73 0 0.0 1.0 0.00 0.00 0.00 37 1020.1
20260502234016 73 0 0.0 2.0 0.00 0.00 0.00 34 1020.2
20260502233516 74 0 0.0 2.0 0.00 0.00 0.00 38 1020.2
20260502233033 74 0 0.0 5.0 0.00 0.00 0.00 36 1020.1
20260502232515 73 0 1.0 5.0 0.00 0.00 0.00 35 1020.2
20260502232015 74 327 1.0 5.0 0.00 0.00 0.00 35 1020.1
20260502231531 74 321 2.0 5.0 0.00 0.00 0.00 33 1020.2
20260502231015 74 331 2.0 5.0 0.00 0.00 0.00 36 1020.2
20260502230519 74 360 0.0 5.0 0.00 0.00 0.00 33 1020.3
20260502230035 74 329 1.0 5.0 0.00 0.00 0.00 37 1020.2
20260502225515 74 313 2.0 8.0 0.00 0.00 0.00 35 1020.2
20260502225018 74 345 2.0 8.0 0.00 0.00 0.00 35 1020.2
20260502224530 74 344 2.0 8.0 0.00 0.00 0.00 34 1020.2
20260502224018 75 40 1.0 4.0 0.00 0.00 0.00 36 1020.2
20260502223518 74 349 2.0 4.0 0.00 0.00 0.00 35 1020.2
20260502223032 74 331 0.0 4.0 0.00 0.00 0.00 38 1020.3
20260502222515 74 97 1.0 9.0 0.00 0.00 0.00 35 1020.2
20260502222016 74 284 3.0 9.0 0.00 0.00 0.00 35 1020.2
20260502221535 74 262 2.0 9.0 0.00 0.00 0.00 38 1020.2
20260502221016 74 325 3.0 9.0 0.00 0.00 0.00 35 1020.3
20260502220516 74 5 1.0 7.0 0.00 0.00 0.00 36 1020.4
20260502220034 73 101 2.0 6.0 0.00 0.00 0.00 36 1020.4
20260502215515 73 284 2.0 6.0 0.00 0.00 0.00 38 1020.5
20260502215015 74 355 2.0 6.0 0.00 0.00 0.00 37 1020.6
20260502214531 75 279 0.0 5.0 0.00 0.00 0.00 37 1020.6
20260502214015 74 333 3.0 8.0 0.00 0.00 0.00 36 1020.6
20260502213516 74 259 2.0 8.0 0.00 0.00 0.00 36 1020.6
20260502213033 74 290 1.0 8.0 0.00 0.00 0.00 37 1020.7
20260502212515 74 274 3.0 9.0 0.00 0.00 0.00 38 1020.8
20260502212018 74 238 4.0 9.0 0.00 0.00 0.00 38 1020.8
20260502211532 74 300 4.0 8.0 0.00 0.00 0.00 38 1020.9
20260502211015 73 0 2.0 8.0 0.00 0.00 0.00 35 1020.9
20260502210517 73 311 2.0 8.0 0.00 0.00 0.00 36 1021.0
20260502210030 73 88 3.0 8.0 0.00 0.00 0.00 40 1021.1
20260502205515 73 0 1.0 5.0 0.00 0.01 0.00 39 1021.1
20260502205015 73 250 1.0 6.0 0.00 0.01 0.00 40 1021.3
20260502204534 74 291 2.0 6.0 0.00 0.01 0.00 39 1021.4
20260502204015 74 323 3.0 7.0 0.00 0.01 0.00 40 1021.5
20260502203519 73 256 1.0 8.0 0.00 0.01 0.00 38 1021.4
20260502203028 73 251 4.0 8.0 0.00 0.01 0.00 36 1021.5
20260502202516 74 225 1.0 9.0 0.00 0.01 0.00 37 1021.4
20260502202015 74 325 3.0 9.0 0.00 0.01 0.00 37 1021.5
20260502201530 73 308 2.0 4.0 0.00 0.01 0.00 42 1021.6
20260502201015 73 101 2.0 5.0 0.00 0.01 0.00 38 1021.6
20260502200515 72 223 1.0 9.0 0.00 0.01 0.00 36 1021.8
20260502200032 73 288 2.0 9.0 0.00 0.01 0.00 38 1021.8
20260502195516 73 317 2.0 8.0 0.00 0.01 0.00 40 1021.9
20260502195016 73 242 3.0 5.0 0.00 0.01 0.00 40 1021.8
20260502194531 73 302 2.0 8.0 0.00 0.01 0.00 40 1021.9
20260502194016 73 325 2.0 8.0 0.00 0.01 0.00 41 1021.8
20260502193517 71 311 3.0 8.0 0.00 0.01 0.00 41 1021.9
20260502193034 71 88 0.0 8.0 0.00 0.01 0.00 44 1021.8
20260502192516 71 71 2.0 8.0 0.00 0.01 0.00 45 1021.8
20260502192017 73 52 2.0 4.0 0.00 0.01 0.00 41 1021.8
20260502191533 71 80 1.0 4.0 0.00 0.01 0.00 47 1022.0
20260502191015 71 14 1.0 8.0 0.00 0.01 0.00 39 1021.9
20260502190515 71 227 1.0 8.0 0.00 0.01 0.00 39 1021.9
20260502190034 72 333 4.0 8.0 0.00 0.01 0.00 39 1022.0
20260502185520 72 87 1.0 5.0 0.00 0.01 0.00 37 1022.0
20260502185016 72 343 2.0 8.0 0.00 0.01 0.00 43 1022.1
20260502184551 70 331 1.0 9.0 0.00 0.01 0.00 38 1022.2
20260502184017 71 321 3.0 9.0 0.00 0.01 0.00 40 1022.1
20260502183516 72 30 3.0 8.0 0.00 0.01 0.00 44 1022.2
20260502183031 70 269 1.0 8.0 0.00 0.01 0.00 42 1022.3
20260502182516 71 325 2.0 8.0 0.00 0.01 0.00 45 1022.5
20260502182015 72 72 2.0 7.0 0.00 0.01 0.00 41 1022.4
20260502181533 71 0 1.0 7.0 0.00 0.01 0.00 44 1022.5
20260502181019 72 115 3.0 12.0 0.00 0.01 0.00 37 1022.6
20260502180516 71 0 1.0 12.0 0.00 0.01 0.00 43 1022.6
20260502170516 69 12 1.0 6.0 0.00 0.01 0.00 45 1023.5
20260502164021 68 317 2.0 8.0 0.00 0.01 0.00 47 1023.7
20260502163515 67 286 4.0 10.0 0.00 0.01 0.00 46 1023.6
20260502163037 68 318 4.0 10.0 0.00 0.01 0.00 48 1023.6
20260502162516 67 0 1.0 8.0 0.00 0.01 0.00 54 1023.6
20260502162024 67 302 3.0 8.0 0.00 0.01 0.00 53 1023.6
20260502161536 67 229 1.0 10.0 0.00 0.01 0.00 54 1023.7
20260502161015 66 0 4.0 10.0 0.00 0.01 0.00 50 1023.7
20260502160519 67 315 2.0 9.0 0.00 0.01 0.00 55 1023.7
20260502152016 64 342 3.0 8.0 0.00 0.01 0.00 63 1023.5
20260502151532 64 298 4.0 10.0 0.00 0.01 0.00 66 1023.6
20260502151015 63 284 4.0 11.0 0.00 0.01 0.00 63 1023.5
20260502150515 63 309 6.0 11.0 0.00 0.01 0.00 65 1023.5
20260502130516 45 0 0.0 2.0 0.00 0.02 0.00 94 1022.6
20260502123515 43 0 0.0 2.0 0.00 0.04 0.00 93 1022.3
20260502123043 43 0 0.0 1.0 0.00 0.04 0.00 93 1022.3
20260502122515 43 329 0.0 1.0 0.00 0.04 0.00 92 1022.1
20260502122017 42 0 0.0 1.0 0.00 0.04 0.00 92 1022.0
20260502121535 42 0 0.0 1.0 0.00 0.04 0.00 92 1021.9
20260502121017 42 0 0.0 1.0 0.00 0.04 0.00 91 1021.9
20260502120515 42 0 0.0 1.0 0.00 0.04 0.00 91 1021.8
20260502115516 42 0 0.0 0.0 0.00 0.06 0.00 91 1021.5
20260502115016 42 0 0.0 0.0 0.00 0.06 0.00 91 1021.5
20260502114531 42 0 0.0 0.0 0.00 0.06 0.00 91 1021.4
20260502114021 42 0 0.0 0.0 0.00 0.06 0.00 91 1021.5
20260502113516 42 0 0.0 0.0 0.00 0.06 0.00 91 1021.4
20260502113035 42 0 0.0 0.0 0.00 0.06 0.00 91 1021.3
20260502112515 42 0 0.0 0.0 0.00 0.06 0.00 91 1021.3
20260502112015 42 0 0.0 0.0 0.00 0.06 0.00 90 1021.1
20260502111532 42 0 0.0 0.0 0.00 0.06 0.00 90 1021.0
20260502111015 42 0 0.0 0.0 0.00 0.06 0.00 90 1020.9
20260502110515 42 0 0.0 0.0 0.00 0.06 0.00 90 1020.9
20260502110033 43 0 0.0 0.0 0.00 0.06 0.00 90 1020.8
20260502105515 43 0 0.0 0.0 0.00 0.06 0.00 90 1020.7
20260502105016 43 0 0.0 0.0 0.00 0.06 0.00 90 1020.7
20260502104536 43 0 0.0 0.0 0.00 0.06 0.00 90 1020.6
20260502104015 43 0 0.0 0.0 0.00 0.06 0.00 90 1020.4
20260502103516 43 0 0.0 0.0 0.00 0.06 0.00 90 1020.3
20260502103030 43 0 0.0 0.0 0.00 0.06 0.00 90 1020.2
20260502102516 43 0 0.0 0.0 0.00 0.06 0.00 90 1020.1
20260502102016 44 0 0.0 0.0 0.00 0.06 0.00 90 1020.0
20260502101530 44 0 0.0 0.0 0.00 0.06 0.00 90 1020.1
20260502101015 44 0 0.0 0.0 0.00 0.06 0.00 90 1020.0
20260502100519 44 0 0.0 0.0 0.00 0.06 0.00 90 1019.9
20260502091533 45 0 0.0 0.0 0.00 0.06 0.00 90 1020.0
20260502091017 45 0 0.0 0.0 0.00 0.06 0.00 90 1020.1
20260502090515 46 0 0.0 0.0 0.00 0.06 0.00 91 1020.1
20260502071529 49 0 0.0 0.0 0.00 0.06 0.00 90 1020.1
20260502071015 49 0 0.0 0.0 0.00 0.06 0.00 90 1020.2
20260502070516 49 0 0.0 0.0 0.00 0.06 0.00 90 1020.2
20260502070044 49 0 0.0 0.0 0.00 0.06 0.00 90 1020.2
20260502065514 50 0 0.0 0.0 0.00 0.06 0.00 91 1020.3
20260502065015 50 0 0.0 1.0 0.00 0.06 0.00 91 1020.4
20260502064530 50 0 0.0 2.0 0.00 0.06 0.00 91 1020.4
20260502064015 50 0 0.0 2.0 0.00 0.06 0.00 91 1020.5
20260502063515 50 0 0.0 1.0 0.00 0.06 0.00 91 1020.5
20260502063036 50 0 0.0 1.0 0.00 0.06 0.00 91 1020.4
20260502062515 50 0 0.0 1.0 0.00 0.06 0.00 91 1020.3
20260502062017 49 0 0.0 2.0 0.00 0.06 0.00 90 1020.3
20260502061530 49 329 0.0 2.0 0.00 0.06 0.00 90 1020.3
20260502061014 49 0 0.0 0.0 0.00 0.06 0.00 90 1020.4
20260502060515 49 0 0.0 0.0 0.00 0.06 0.00 89 1020.1
20260502060032 49 0 0.0 0.0 0.00 0.06 0.00 89 1020.2
20260502055519 49 0 0.0 0.0 0.00 0.06 0.00 89 1020.1
20260502055016 49 0 0.0 0.0 0.00 0.06 0.00 88 1020.3
20260502054529 49 0 0.0 1.0 0.00 0.06 0.00 88 1020.2
20260502054017 49 0 0.0 1.0 0.00 0.06 0.00 88 1020.2
20260502053515 49 0 0.0 1.0 0.00 0.06 0.00 88 1020.2
20260502053032 49 0 0.0 0.0 0.00 0.06 0.00 87 1020.3
20260502052520 49 0 0.0 0.0 0.00 0.06 0.00 87 1020.2
20260502052014 49 0 0.0 0.0 0.00 0.06 0.00 87 1020.1
20260502051531 50 0 0.0 0.0 0.00 0.06 0.00 87 1020.2
20260502051015 50 0 0.0 0.0 0.00 0.06 0.00 85 1020.3
20260502050515 50 0 0.0 1.0 0.00 0.06 0.00 85 1020.4
20260502050032 50 0 0.0 1.0 0.00 0.06 0.00 85 1020.5
20260502045515 50 0 0.0 0.0 0.00 0.06 0.06 84 1020.4
20260502045015 50 0 0.0 0.0 0.00 0.06 0.06 84 1020.2
20260502044531 51 0 0.0 0.0 0.00 0.06 0.06 84 1020.2
20260502044015 51 0 0.0 0.0 0.00 0.06 0.06 84 1020.2
20260502043515 51 0 0.0 0.0 0.00 0.06 0.06 83 1020.2
20260502043029 51 0 0.0 0.0 0.00 0.06 0.06 84 1020.2
20260502042515 51 0 0.0 0.0 0.00 0.06 0.06 84 1020.1
20260502042015 52 0 0.0 0.0 0.00 0.06 0.06 83 1020.1
20260502041539 52 0 0.0 0.0 0.00 0.06 0.06 83 1020.1
20260502041015 52 0 0.0 0.0 0.00 0.06 0.06 83 1020.1
20260502040516 52 0 0.0 0.0 0.00 0.06 0.06 83 1020.1
20260502040038 53 0 0.0 0.0 0.00 0.06 0.06 82 1020.1
20260502035515 53 0 0.0 0.0 0.00 0.06 0.06 81 1020.1
20260502035019 53 0 0.0 0.0 0.00 0.06 0.06 81 1020.0